Location: Newark
(50.8547°N, 2.7256°E)
Time: 18:14:04
(UTC+00:00)

N. Korean satellite - Visible Passes

Search period start: 29 January 2020 00:00
Search period end: 08 February 2020 00:00
Orbit: 454 x 507 km, 97.2° (Epoch: 28 January)

Date Brightness Start Highest point End Pass type
(mag) Time Alt. Az. Time Alt. Az. Time Alt. Az.
29 Jan 7.2 05:34:34 10° NNE 05:38:09 59° E 05:41:44 10° S visible
29 Jan 9.8 17:49:41 10° SW 17:51:44 15° W 17:53:47 10° NW visible
30 Jan 8.6 05:09:19 10° NNE 05:12:33 30° E 05:15:49 10° SSE visible
30 Jan 7.6 06:42:52 10° N 06:45:51 25° WNW 06:48:51 10° WSW visible
30 Jan 9.0 17:23:02 10° SSW 17:26:01 27° W 17:29:03 10° NW visible
31 Jan 9.6 04:44:26 10° NE 04:46:52 17° E 04:49:19 10° SE visible
31 Jan 6.9 06:17:01 10° N 06:20:28 44° WNW 06:23:58 10° SW visible
01 Feb 6.5 05:51:22 10° NNE 05:55:01 87° W 05:58:41 10° SSW visible
02 Feb 7.7 05:25:57 10° NNE 05:29:29 47° E 05:33:02 10° S visible
02 Feb 9.7 17:40:29 10° SW 17:42:58 18° W 17:45:29 10° NW visible
03 Feb 9.0 05:00:46 10° NE 05:03:50 25° E 05:06:57 10° SSE visible
03 Feb 7.4 06:34:02 10° N 06:37:15 30° WNW 06:40:29 10° SW visible
03 Feb 8.5 17:14:06 10° SSW 17:17:17 34° W 17:20:30 10° NNW visible
04 Feb 9.9 04:36:06 10° NE 04:38:08 14° E 04:40:09 10° ESE visible
04 Feb 6.6 06:08:15 10° N 06:11:51 56° WNW 06:15:27 10° SSW visible
05 Feb 6.8 05:42:40 10° NNE 05:46:21 75° ESE 05:50:02 10° S visible
05 Feb 10.0 17:58:27 10° WSW 17:59:57 12° W 18:01:29 10° WNW visible
06 Feb 8.1 05:17:19 10° NNE 05:20:47 38° E 05:24:15 10° SSE visible
06 Feb 9.4 17:31:24 10° SSW 17:34:11 23° W 17:37:03 10° NW visible
07 Feb 9.3 04:52:15 10° NE 04:55:07 21° E 04:57:59 10° SE visible
07 Feb 7.2 06:25:13 10° N 06:28:37 36° WNW 06:32:02 10° SW visible
